SL-14 DEB, 45269

Orbit data source: Space-Track

SL-14 DEB, 45269 is space debris in LEO originally from a launch on Thu, 15 Aug 1991 UTC launched from the Plesetsk Missile And Space Complex (PKMTR). Debris objects in space refer to the collection of defunct objects orbiting the Earth. Examples of debris include non-operational satellites, rocket bodies, and fragments generated from explosions, collisions, or faulty payload assembly.

Loading next visibility...
Identifier
45269, 1991-056F
Orbit
LEO
Country
Flag of CISCIS
Related business
Manufacturer
Unknown
Mission
Spacecraft
Bus & Motor
Unknown
Mass
Unknown
Launch date (UTC)
1991-08-15 (34 years ago)
Launch vehicle
Unknown
Launch site
Plesetsk Missile And Space Complex (PKMTR)
Object type
Payload
Rocket body
Debris
Shape & HBR
Unknown shape, 0.4 m
Radar Cross Section
Medium (>0.1 m² and <1 m²)

Expand to show TLE details & history
Last TLE update: 8 hours ago

TLE from 8 hours ago
0 SL-14 DEB
1 45269U 91056F   25292.32161423  .00000077  00000-0  15836-3 0  9999
2 45269  82.5723 304.4450 0025679 312.2528  47.6419 13.20574067273915
Epoch: 2025-10-19T07:43Z
TLE epoch observation values (Epoch: 2025-10-19T07:43:07.469Z)
Latitude
0.00006°
Longitude
160.62394°
Altitude
1,172.285 km
Speed
7.274 km/s
True Right ascension
20h 17m 46s
True Declination
0° 00' 00"
Sunlit
Object was in daylight at epoch
Visualization orbit readout
Latitude
Unknown
Longitude
Unknown
Altitude
Unknown
Speed
Unknown
Apparent Right ascension
Unknown
Apparent Declination
Unknown
Sunlit
N/A
Visualization observer readout
Local Sidereal Time
10:59:07
Azimuth
Unknown
Elevation
Unknown
Doppler factor
Unknown
Orbital elements
Apogee altitude
1,199.175 km
Perigee altitude
1,160.359 km
Semi-major axis
7,557.904 km
Eccentricity
0.00257
Inclination
82.5723°
RAAN
304.445°
Arg. of periapsis
312.2528°
True anomaly
47.85981°
Mean anomaly
47.6419°
Eccentric anomaly
47.75081°
Mean motion
3.30325 °/min
Orbital period
108.98 mins
BSTAR
0.00015836
Loading maneuver chart data...
Computing Atmospheric mass density...
Loading historical data...
Loading historical data...
Loading historical data...
Loading historical data...
Loading historical data...
Loading historical data...
Loading historical data...

Documentation

Showing up to 5 results
|